TELKOM 4 (MERAH PUTIH)

Last updated on Tue Sep 22 2026 00:03:14 GMT+0000 (Coordinated Universal Time)

1 43587U 18064A 26264.62243980 -.00000348 00000+0 00000+0 0 9994 2 43587 0.0116 125.6983 0001270 55.9228 150.9698 1.00271491 29848
UTC large
Height (km)
Speed (km/s)
/
Latitude / Longitude
Inclination (degrees)
Orbital Period (minutes)
Azimuth
Elevation
Range (km)
Doppler Factor

Next 0 passes for location: London (51.5072 / 0.1276)

No passes found over London.
TELKOM 4 (MERAH PUTIH)